Flag for U.S.A. Weather past 2 weeks in Fort Lauderdale, Florida, U.S.A.

Now
86 °F

Scattered clouds.


Feels Like: 96 °F
Forecast: 80 / 89 °F
Wind: 14 mph from Southeast

Location: Fort Lauderdale / Hollywood International Airport

Current Time: Sep 3, 2015 at 6:23:28 PM

Latest Report: Sep 3, 2015 at 5:53 PM


Visibility: 10 mi

Pressure: 29.91 "Hg

Humidity: 72%

Dew point: 76 °F

Location of Fort LauderdaleLocation

Historic Weather in Fort Lauderdale — Graph

°F

Fort Lauderdale temperature yesterday

Maximum temperature yesterday: 89 °F (at 12:53 PM)
Minimum temperature yesterday: 81 °F (at 9:53 AM)
Average temperature yesterday: 85 °F

Past Weeks' High & Low Weather Summary

 TemperatureHumidityPressure
High92 °F (Aug 23, 12:53 PM)100% (Aug 30, 5:53 AM)30.09 "Hg (Aug 30, 5:53 AM)
Low75 °F (Aug 30, 4:53 AM)57% (Aug 21, 11:53 AM)29.87 "Hg (Aug 24, 5:53 PM)
Average84 °F78%29.98 "Hg
* Reported Aug 19 3:53 PM — Sep 3 3:53 PM, Fort Lauderdale, Weather by CustomWeather, © 2015

Note: Actual official high and low records may vary slightly from our data, if they occured in-between our weather recording intervals... More about our weather records

Advertising

Fort Lauderdale weather history for previous 24 hours

 ConditionsComfort  
Time TempWeatherWind HumidityBarometerVisibility
3:53 PM
Thu, Sep 3
89 °FScattered clouds.13 mph68%29.92 "Hg10 mi
2:53 PM89 °FPartly sunny.13 mph65%29.93 "Hg10 mi
1:53 PM89 °FBroken clouds.12 mph70%29.95 "Hg10 mi
12:53 PM87 °FBroken clouds.8 mph72%29.97 "Hg10 mi
11:53 AM88 °FBroken clouds.No wind63%29.98 "Hg10 mi
10:53 AM88 °FBroken clouds.3 mph70%29.99 "Hg10 mi
9:53 AM85 °FBroken clouds.5 mph77%29.99 "Hg10 mi
8:53 AM83 °FPartly sunny.6 mph85%30.00 "Hg10 mi
7:53 AM82 °FPassing clouds.6 mph88%29.98 "Hg10 mi
6:53 AM80 °FPassing clouds.6 mph90%29.97 "Hg10 mi
5:53 AM80 °FPassing clouds.No wind90%29.96 "Hg10 mi
4:53 AM80 °FClear.No wind90%29.95 "Hg10 mi
3:53 AM81 °FPassing clouds.No wind91%29.96 "Hg10 mi
2:53 AM81 °FPassing clouds.No wind88%29.96 "Hg10 mi
1:53 AM82 °FPassing clouds.No wind85%29.98 "Hg10 mi
12:53 AM83 °FPassing clouds.3 mph82%30.01 "Hg10 mi
11:53 PM
Wed, Sep 2
84 °FPassing clouds.No wind80%30.01 "Hg10 mi
10:53 PM84 °FPassing clouds.6 mph80%30.02 "Hg10 mi
9:53 PM84 °FPassing clouds.6 mph80%30.01 "Hg10 mi
8:53 PM85 °FPassing clouds.6 mph75%30.01 "Hg10 mi
7:53 PM85 °FPartly sunny.10 mph77%29.98 "Hg10 mi
6:53 PM86 °FPartly sunny.13 mph70%29.97 "Hg10 mi
Weather by CustomWeather, © 2015

See weather overviewHow to use our weather pages